Location: ?????????
(53.2086°N, 54.0693°E)
Time: 07:16:08
(UTC+00:00)

Cosmos 1782 Rocket - Pass Details

Date: 08 December 2019
Orbit: 606 x 633 km, 82.5° (Epoch: 19 January)

Event Time Altitude Azimuth Distance (km) Brightness Sun altitude
Rises 14:24:50 0° 350° (N) 2,898 7.0 -19.4°
Reaches altitude 10° 14:27:06 10° 354° (N) 1,984 6.1 -19.7°
Maximum altitude 14:31:28 63° 76° (ENE) 684 3.4 -20.3°
Drops below altitude 10° 14:35:46 10° 158° (SSE) 1,958 6.0 -21.0°
Sets 14:37:59 0° 162° (SSE) 2,855 6.9 -21.3°
